Altus AFB, OK

2:27 AM CST on December 05, 2016 (GMT -0600)
Altus Air Force Base

Weather History for KLTS - November, 2012

Change the Weather History Date:

Saturday, November 24, 2012

  Actual Average Record
Temperature  
Mean Temperature 45 °F -  
Max Temperature 63 °F 55 °F 80 °F (2010)
Min Temperature 27 °F 34 °F 17 °F (2003)
Degree Days  
Heating Degree Days 20    
Moisture  
Dew Point 24 °F    
Average Humidity 49    
Maximum Humidity 84    
Minimum Humidity 21    
Precipitation  
Precipitation 0.00 in - - ()
Sea Level Pressure  
Sea Level Pressure 30.22 in    
Wind  
Wind Speed 6 mph (South)    
Max Wind Speed 22 mph    
Max Gust Speed 25 mph    
Visibility 10 miles    
Events      
Averages and records for this station are not official NWS values.
T = Trace of Precipitation, MM = Missing Value Source: NWS Daily Summary

Daily Weather History Graph

Daily Weather History Graph

Search for Another Location

Airport or City:

Trip Planner

Search our weather history database for the weather conditions in past years. The results will help you decide how hot, cold, wet, or windy it might be!

Date:

Astronomy

Nov. 24, 2012 Rise Set
Actual Time 7:19 AM CST 5:27 PM CST
Civil Twilight 6:52 AM CST 5:54 PM CST
Nautical Twilight 6:21 AM CST 6:25 PM CST
Astronomical Twilight 5:51 AM CST 6:56 PM CST
Moon 3:07 PM CST (11/24) 3:45 AM CST (11/24)
Length of Visible Light 11h 02m
Length of Day
10h 07m
Waxing Gibbous, 87% of the Moon is Illuminated
Nov 24
Waxing Gibbous
Nov 28
Full
Dec 6
Last Quarter
Dec 13
New
Dec 19
First Quarter

Hourly Weather History & Observations

Time (CST) Temp. Windchill Dew Point Humidity Pressure Visibility Wind Dir Wind Speed Gust Speed Precip Events Conditions
12:55 AM 35.2 °F - 23.7 °F 63% 30.44 in 10.0 mi Calm Calm - N/A   Clear
1:55 AM 34.5 °F - 23.4 °F 64% 30.43 in 10.0 mi Calm Calm - N/A   Clear
2:55 AM 29.5 °F - 23.5 °F 79% 30.44 in 10.0 mi Calm Calm - N/A   Clear
3:55 AM 30.7 °F - 22.5 °F 71% 30.42 in 10.0 mi Calm Calm - N/A   Clear
4:55 AM 34.9 °F 30.8 °F 23.5 °F 63% 30.39 in 10.0 mi SW 4.6 mph - N/A   Clear
5:55 AM 28.0 °F - 22.5 °F 80% 30.40 in 10.0 mi Calm Calm - N/A   Clear
6:55 AM 27.3 °F - 23.0 °F 84% 30.40 in 10.0 mi Calm Calm - N/A   Clear
7:55 AM 28.2 °F 24.4 °F 22.8 °F 80% 30.40 in 10.0 mi ESE 3.5 mph - N/A   Clear
8:55 AM 36.9 °F 34.3 °F 25.3 °F 63% 30.39 in 10.0 mi SSE 3.5 mph - N/A   Clear
9:55 AM 45.5 °F 39.6 °F 25.3 °F 45% 30.36 in 10.0 mi South 12.7 mph - N/A   Clear
10:55 AM 52.5 °F - 24.3 °F 33% 30.32 in 10.0 mi South 12.7 mph - N/A   Clear
11:55 AM 56.3 °F - 23.9 °F 29% 30.27 in 10.0 mi South 16.1 mph - N/A   Clear
12:55 PM 60.1 °F - 21.4 °F 23% 30.20 in 10.0 mi SSW 17.3 mph - N/A   Clear
1:55 PM 61.9 °F - 21.2 °F 21% 30.15 in 10.0 mi SSW 20.7 mph 25.3 mph N/A   Clear
2:55 PM 63.5 °F - 23.5 °F 22% 30.11 in 10.0 mi South 16.1 mph 24.2 mph N/A   Clear
3:55 PM 63.7 °F - 24.4 °F 22% 30.07 in 10.0 mi SSW 21.9 mph - N/A   Clear
4:55 PM 62.6 °F - 26.6 °F 26% 30.05 in 10.0 mi SSW 13.8 mph 23.0 mph N/A   Clear
5:55 PM 55.2 °F - 26.1 °F 33% 30.04 in 10.0 mi South 8.1 mph - N/A   Clear
6:55 PM 49.3 °F - 25.7 °F 40% 30.04 in 10.0 mi South 8.1 mph - N/A   Clear
7:55 PM 45.0 °F 40.6 °F 22.6 °F 41% 30.04 in 10.0 mi SSE 8.1 mph - N/A   Clear
8:55 PM 42.4 °F 38.1 °F 22.6 °F 46% 30.03 in 10.0 mi SE 6.9 mph - N/A   Clear
9:55 PM 42.3 °F 37.9 °F 22.5 °F 45% 30.01 in 10.0 mi SE 6.9 mph - N/A   Clear
10:55 PM 42.8 °F 38.0 °F 23.0 °F 46% 30.00 in 10.0 mi SSE 8.1 mph - N/A   Clear
11:55 PM 42.4 °F 37.5 °F 23.0 °F 46% 29.98 in 10.0 mi SE 8.1 mph - N/A   Clear